| time (UTC) | temp F | wind direction | speed MPH | gust MPH | rain 1hr in | rain 24hr in | rain mn in | humidity % | barometer mb |
| 20260508184833 | 60 | 134 | 2.0 | 8.0 | 0.00 | 0.00 | 0.00 | 70 | 1010.3 |
| 20260508184354 | 60 | 230 | 1.0 | 8.0 | 0.00 | 0.00 | 0.00 | 69 | 1010.4 |
| 20260508183831 | 60 | 151 | 3.0 | 9.0 | 0.00 | 0.00 | 0.00 | 69 | 1010.4 |
| 20260508183334 | 60 | 146 | 3.0 | 9.0 | 0.00 | 0.00 | 0.00 | 69 | 1010.5 |
| 20260508182830 | 60 | 134 | 2.0 | 5.0 | 0.00 | 0.00 | 0.00 | 67 | 1010.5 |
| 20260508182334 | 59 | 117 | 1.0 | 9.0 | 0.00 | 0.00 | 0.00 | 67 | 1010.6 |
| 20260508181900 | 59 | 131 | 3.0 | 9.0 | 0.00 | 0.00 | 0.00 | 68 | 1010.6 |
| 20260508181334 | 59 | 145 | 2.0 | 10.0 | 0.00 | 0.00 | 0.00 | 69 | 1010.6 |
| 20260508180831 | 59 | 123 | 6.0 | 10.0 | 0.00 | 0.00 | 0.00 | 68 | 1010.5 |
| 20260508180335 | 59 | 139 | 2.0 | 8.0 | 0.00 | 0.00 | 0.00 | 68 | 1010.7 |
| 20260508175858 | 58 | 143 | 2.0 | 9.0 | 0.00 | 0.00 | 0.00 | 69 | 1010.8 |
| 20260508175334 | 58 | 131 | 2.0 | 9.0 | 0.00 | 0.00 | 0.00 | 70 | 1010.8 |
| 20260508174838 | 58 | 200 | 1.0 | 5.0 | 0.00 | 0.00 | 0.00 | 70 | 1010.8 |
| 20260508174336 | 58 | 138 | 1.0 | 5.0 | 0.00 | 0.00 | 0.00 | 71 | 1010.9 |
| 20260508173841 | 57 | 139 | 2.0 | 5.0 | 0.00 | 0.00 | 0.00 | 71 | 1011.0 |
| 20260508173336 | 57 | 149 | 2.0 | 8.0 | 0.00 | 0.00 | 0.00 | 70 | 1011.1 |
| 20260508172859 | 57 | 139 | 2.0 | 9.0 | 0.00 | 0.00 | 0.00 | 70 | 1011.1 |
| 20260508172401 | 57 | 147 | 3.0 | 9.0 | 0.00 | 0.00 | 0.00 | 72 | 1011.2 |
| 20260508171817 | 56 | 130 | 3.0 | 9.0 | 0.00 | 0.00 | 0.00 | 73 | 1011.3 |
| 20260508171334 | 56 | 136 | 4.0 | 9.0 | 0.00 | 0.00 | 0.00 | 74 | 1011.4 |
| 20260508170840 | 56 | 116 | 6.0 | 9.0 | 0.00 | 0.00 | 0.00 | 74 | 1011.5 |
| 20260508170341 | 56 | 146 | 6.0 | 10.0 | 0.00 | 0.00 | 0.00 | 75 | 1011.6 |
| 20260508165852 | 56 | 148 | 5.0 | 10.0 | 0.00 | 0.00 | 0.00 | 77 | 1011.8 |
| 20260508165318 | 56 | 218 | 2.0 | 9.0 | 0.00 | 0.00 | 0.00 | 76 | 1011.8 |
| 20260508164830 | 56 | 133 | 4.0 | 9.0 | 0.00 | 0.00 | 0.00 | 77 | 1012.0 |
| 20260508164333 | 56 | 230 | 1.0 | 9.0 | 0.00 | 0.00 | 0.00 | 76 | 1012.0 |
| 20260508163830 | 56 | 164 | 1.0 | 8.0 | 0.00 | 0.00 | 0.00 | 76 | 1012.1 |
| 20260508163335 | 56 | 141 | 2.0 | 10.0 | 0.00 | 0.00 | 0.00 | 76 | 1012.1 |
| 20260508162831 | 56 | 158 | 6.0 | 10.0 | 0.00 | 0.00 | 0.00 | 74 | 1012.1 |
| 20260508162355 | 56 | 131 | 2.0 | 8.0 | 0.00 | 0.00 | 0.00 | 74 | 1012.1 |
| 20260508161830 | 56 | 110 | 2.0 | 7.0 | 0.00 | 0.00 | 0.00 | 74 | 1012.2 |
| 20260508161333 | 56 | 126 | 1.0 | 7.0 | 0.00 | 0.00 | 0.00 | 74 | 1012.2 |
| 20260508160830 | 56 | 227 | 1.0 | 7.0 | 0.00 | 0.00 | 0.00 | 74 | 1012.1 |
| 20260508160332 | 56 | 139 | 1.0 | 4.0 | 0.00 | 0.00 | 0.00 | 73 | 1012.0 |
| 20260508155828 | 56 | 135 | 1.0 | 4.0 | 0.00 | 0.00 | 0.00 | 73 | 1012.0 |
| 20260508155351 | 56 | 233 | 1.0 | 3.0 | 0.00 | 0.00 | 0.00 | 73 | 1012.0 |
| 20260508154827 | 56 | 350 | 0.0 | 1.0 | 0.00 | 0.00 | 0.00 | 70 | 1012.0 |
| 20260508154349 | 55 | 20 | 0.0 | 3.0 | 0.00 | 0.00 | 0.00 | 72 | 1011.9 |
| 20260508153831 | 55 | 21 | 1.0 | 3.0 | 0.00 | 0.00 | 0.00 | 73 | 1012.0 |
| 20260508153346 | 55 | 29 | 1.0 | 3.0 | 0.00 | 0.00 | 0.00 | 71 | 1012.0 |
| 20260508152829 | 55 | 81 | 1.0 | 3.0 | 0.00 | 0.00 | 0.00 | 71 | 1011.9 |
| 20260508152355 | 55 | 66 | 1.0 | 3.0 | 0.00 | 0.00 | 0.00 | 72 | 1012.0 |
| 20260508151831 | 55 | 66 | 1.0 | 4.0 | 0.00 | 0.00 | 0.00 | 73 | 1012.1 |
| 20260508151334 | 54 | 22 | 1.0 | 4.0 | 0.00 | 0.00 | 0.00 | 72 | 1012.1 |
| 20260508150830 | 54 | 32 | 0.0 | 5.0 | 0.00 | 0.00 | 0.00 | 72 | 1012.0 |
| 20260508150335 | 54 | 68 | 2.0 | 5.0 | 0.00 | 0.00 | 0.00 | 73 | 1012.1 |
| 20260508145830 | 54 | 301 | 2.0 | 3.0 | 0.00 | 0.00 | 0.00 | 72 | 1012.2 |
| 20260508145325 | 54 | 351 | 1.0 | 3.0 | 0.00 | 0.00 | 0.00 | 74 | 1012.3 |
| 20260508144828 | 54 | 25 | 1.0 | 3.0 | 0.00 | 0.00 | 0.00 | 76 | 1012.3 |
| 20260508144323 | 54 | 27 | 0.0 | 3.0 | 0.00 | 0.00 | 0.00 | 77 | 1012.3 |
| 20260508143826 | 53 | 34 | 0.0 | 5.0 | 0.00 | 0.00 | 0.00 | 77 | 1012.3 |
| 20260508143322 | 53 | 35 | 3.0 | 5.0 | 0.00 | 0.00 | 0.00 | 77 | 1012.3 |
| 20260508142825 | 53 | 358 | 2.0 | 5.0 | 0.00 | 0.00 | 0.00 | 78 | 1012.3 |
| 20260508142321 | 53 | 317 | 1.0 | 4.0 | 0.00 | 0.00 | 0.00 | 78 | 1012.4 |
| 20260508141817 | 52 | 325 | 1.0 | 3.0 | 0.00 | 0.00 | 0.00 | 79 | 1012.4 |
| 20260508141321 | 52 | 325 | 0.0 | 3.0 | 0.00 | 0.00 | 0.00 | 80 | 1012.5 |
| 20260508140844 | 52 | 11 | 2.0 | 4.0 | 0.00 | 0.00 | 0.00 | 80 | 1012.5 |
| 20260508140408 | 52 | 281 | 1.0 | 4.0 | 0.00 | 0.00 | 0.00 | 80 | 1012.6 |
| 20260508135851 | 51 | 276 | 0.0 | 5.0 | 0.00 | 0.00 | 0.00 | 80 | 1012.6 |
| 20260508135333 | 51 | 272 | 1.0 | 5.0 | 0.00 | 0.00 | 0.00 | 81 | 1012.5 |
| 20260508134830 | 51 | 10 | 1.0 | 5.0 | 0.00 | 0.00 | 0.00 | 83 | 1012.4 |
| 20260508134335 | 50 | 275 | 0.0 | 2.0 | 0.00 | 0.00 | 0.00 | 83 | 1012.5 |
| 20260508133832 | 50 | 274 | 0.0 | 2.0 | 0.00 | 0.00 | 0.00 | 82 | 1012.5 |
| 20260508133335 | 50 | 274 | 0.0 | 2.0 | 0.00 | 0.00 | 0.00 | 83 | 1012.5 |
| 20260508132832 | 50 | 274 | 1.0 | 2.0 | 0.00 | 0.00 | 0.00 | 85 | 1012.6 |
| 20260508132337 | 49 | 274 | 0.0 | 1.0 | 0.00 | 0.00 | 0.00 | 85 | 1012.3 |
| 20260508131832 | 49 | 274 | 0.0 | 2.0 | 0.00 | 0.00 | 0.00 | 86 | 1012.3 |
| 20260508131356 | 49 | 274 | 0.0 | 1.0 | 0.00 | 0.00 | 0.00 | 86 | 1012.5 |
| 20260508130830 | 48 | 274 | 0.0 | 1.0 | 0.00 | 0.00 | 0.00 | 86 | 1012.5 |
| 20260508130335 | 48 | 274 | 0.0 | 2.0 | 0.00 | 0.00 | 0.00 | 86 | 1012.3 |
| 20260508125832 | 48 | 274 | 1.0 | 2.0 | 0.00 | 0.00 | 0.00 | 87 | 1012.5 |
| 20260508125336 | 48 | 274 | 0.0 | 1.0 | 0.00 | 0.00 | 0.00 | 88 | 1012.3 |
| 20260508124853 | 47 | 274 | 0.0 | 2.0 | 0.00 | 0.00 | 0.00 | 88 | 1012.3 |
| 20260508124334 | 47 | 274 | 1.0 | 3.0 | 0.00 | 0.00 | 0.00 | 89 | 1012.4 |
| 20260508123829 | 47 | 274 | 1.0 | 4.0 | 0.00 | 0.00 | 0.00 | 90 | 1012.3 |
| 20260508123333 | 47 | 274 | 1.0 | 4.0 | 0.00 | 0.00 | 0.00 | 90 | 1012.4 |
| 20260508122858 | 46 | 275 | 2.0 | 4.0 | 0.00 | 0.00 | 0.00 | 91 | 1012.5 |
| 20260508122333 | 46 | 257 | 2.0 | 4.0 | 0.00 | 0.00 | 0.00 | 91 | 1012.5 |
| 20260508121838 | 46 | 274 | 1.0 | 5.0 | 0.00 | 0.00 | 0.00 | 91 | 1012.5 |
| 20260508121331 | 46 | 274 | 2.0 | 5.0 | 0.00 | 0.00 | 0.00 | 92 | 1012.4 |
| 20260508120835 | 45 | 272 | 2.0 | 5.0 | 0.00 | 0.00 | 0.00 | 92 | 1012.3 |
| 20260508120333 | 45 | 281 | 1.0 | 4.0 | 0.00 | 0.00 | 0.00 | 92 | 1012.2 |
| 20260508115837 | 45 | 283 | 1.0 | 4.0 | 0.00 | 0.00 | 0.00 | 92 | 1012.1 |
| 20260508115334 | 45 | 267 | 1.0 | 4.0 | 0.00 | 0.00 | 0.00 | 91 | 1012.1 |
| 20260508114853 | 44 | 268 | 2.0 | 4.0 | 0.00 | 0.00 | 0.00 | 91 | 1012.1 |
| 20260508114329 | 44 | 268 | 2.0 | 3.0 | 0.00 | 0.00 | 0.00 | 91 | 1012.1 |
| 20260508113830 | 44 | 267 | 0.0 | 2.0 | 0.00 | 0.00 | 0.00 | 91 | 1012.0 |
| 20260508113327 | 44 | 267 | 0.0 | 1.0 | 0.00 | 0.00 | 0.00 | 90 | 1011.9 |
| 20260508112833 | 44 | 267 | 0.0 | 0.0 | 0.00 | 0.00 | 0.00 | 90 | 1011.9 |
| 20260508112330 | 43 | 267 | 0.0 | 0.0 | 0.00 | 0.00 | 0.00 | 89 | 1012.0 |
| 20260508111834 | 43 | 268 | 0.0 | 0.0 | 0.00 | 0.00 | 0.00 | 88 | 1012.0 |
| 20260508111329 | 43 | 268 | 0.0 | 0.0 | 0.00 | 0.00 | 0.00 | 88 | 1012.0 |
| 20260508110832 | 43 | 267 | 0.0 | 0.0 | 0.00 | 0.00 | 0.00 | 88 | 1011.8 |
| 20260508110329 | 43 | 267 | 0.0 | 0.0 | 0.00 | 0.00 | 0.00 | 88 | 1011.8 |
| 20260508105853 | 43 | 267 | 0.0 | 0.0 | 0.00 | 0.00 | 0.00 | 88 | 1011.7 |
| 20260508105354 | 43 | 267 | 0.0 | 0.0 | 0.00 | 0.00 | 0.00 | 88 | 1011.7 |
| 20260508104829 | 44 | 267 | 0.0 | 0.0 | 0.00 | 0.00 | 0.00 | 88 | 1011.7 |
| 20260508104332 | 44 | 267 | 0.0 | 0.0 | 0.00 | 0.00 | 0.00 | 89 | 1011.7 |
| 20260508103857 | 44 | 267 | 0.0 | 0.0 | 0.00 | 0.00 | 0.00 | 88 | 1011.6 |
| 20260508103332 | 44 | 267 | 0.0 | 0.0 | 0.00 | 0.00 | 0.00 | 88 | 1011.4 |
| 20260508102829 | 44 | 267 | 0.0 | 1.0 | 0.00 | 0.00 | 0.00 | 88 | 1011.4 |
| 20260508102332 | 44 | 267 | 0.0 | 1.0 | 0.00 | 0.00 | 0.00 | 88 | 1011.4 |
| 20260508101829 | 44 | 267 | 0.0 | 1.0 | 0.00 | 0.00 | 0.00 | 87 | 1011.4 |
| 20260508101332 | 44 | 267 | 0.0 | 1.0 | 0.00 | 0.00 | 0.00 | 87 | 1011.6 |
| 20260508100830 | 44 | 267 | 0.0 | 1.0 | 0.00 | 0.00 | 0.00 | 86 | 1011.5 |
| 20260508100333 | 45 | 267 | 0.0 | 0.0 | 0.00 | 0.00 | 0.00 | 86 | 1011.4 |
| 20260508095830 | 45 | 268 | 0.0 | 0.0 | 0.00 | 0.00 | 0.00 | 86 | 1011.4 |
| 20260508095333 | 45 | 268 | 0.0 | 0.0 | 0.00 | 0.00 | 0.00 | 85 | 1011.4 |
| 20260508094829 | 45 | 267 | 0.0 | 0.0 | 0.00 | 0.00 | 0.00 | 86 | 1011.4 |
| 20260508094333 | 45 | 267 | 0.0 | 0.0 | 0.00 | 0.00 | 0.00 | 86 | 1011.5 |
| 20260508093829 | 45 | 267 | 0.0 | 0.0 | 0.00 | 0.00 | 0.00 | 86 | 1011.5 |
| 20260508093333 | 45 | 268 | 0.0 | 1.0 | 0.00 | 0.00 | 0.00 | 86 | 1011.5 |
| 20260508092829 | 45 | 268 | 0.0 | 1.0 | 0.00 | 0.00 | 0.00 | 86 | 1011.5 |
| 20260508092335 | 45 | 267 | 0.0 | 2.0 | 0.00 | 0.00 | 0.00 | 86 | 1011.4 |
| 20260508091832 | 46 | 267 | 0.0 | 4.0 | 0.00 | 0.00 | 0.00 | 86 | 1011.5 |
| 20260508091335 | 46 | 267 | 1.0 | 4.0 | 0.00 | 0.00 | 0.00 | 86 | 1011.4 |
| 20260508090832 | 46 | 268 | 2.0 | 5.0 | 0.00 | 0.00 | 0.00 | 86 | 1011.3 |
| 20260508090326 | 46 | 263 | 2.0 | 7.0 | 0.00 | 0.00 | 0.00 | 86 | 1011.4 |
| 20260508085850 | 46 | 271 | 1.0 | 3.0 | 0.00 | 0.00 | 0.00 | 86 | 1011.4 |
| 20260508085332 | 46 | 271 | 0.0 | 2.0 | 0.00 | 0.00 | 0.00 | 86 | 1011.4 |
| 20260508084830 | 46 | 271 | 1.0 | 4.0 | 0.00 | 0.00 | 0.00 | 85 | 1011.4 |
| 20260508084334 | 46 | 270 | 2.0 | 4.0 | 0.00 | 0.00 | 0.00 | 85 | 1011.4 |
| 20260508083829 | 46 | 244 | 2.0 | 4.0 | 0.00 | 0.00 | 0.00 | 85 | 1011.4 |
| 20260508083325 | 46 | 272 | 1.0 | 4.0 | 0.00 | 0.00 | 0.00 | 85 | 1011.2 |
| 20260508082829 | 46 | 274 | 1.0 | 5.0 | 0.00 | 0.00 | 0.00 | 85 | 1011.3 |
| 20260508082332 | 47 | 262 | 3.0 | 5.0 | 0.00 | 0.00 | 0.00 | 84 | 1011.4 |
| 20260508081828 | 47 | 260 | 1.0 | 5.0 | 0.00 | 0.00 | 0.00 | 84 | 1011.3 |
| 20260508081332 | 47 | 247 | 2.0 | 4.0 | 0.00 | 0.00 | 0.00 | 84 | 1011.4 |
| 20260508080830 | 47 | 259 | 2.0 | 9.0 | 0.00 | 0.00 | 0.00 | 84 | 1011.5 |
| 20260508080332 | 47 | 253 | 4.0 | 9.0 | 0.00 | 0.00 | 0.00 | 84 | 1011.4 |
| 20260508075829 | 47 | 241 | 2.0 | 6.0 | 0.00 | 0.00 | 0.00 | 83 | 1011.5 |
| 20260508075332 | 47 | 256 | 3.0 | 6.0 | 0.00 | 0.00 | 0.00 | 83 | 1011.5 |
| 20260508074829 | 47 | 254 | 3.0 | 6.0 | 0.00 | 0.00 | 0.00 | 83 | 1011.6 |
| 20260508074353 | 47 | 250 | 3.0 | 6.0 | 0.00 | 0.00 | 0.00 | 83 | 1011.5 |
| 20260508073828 | 47 | 249 | 2.0 | 9.0 | 0.00 | 0.00 | 0.00 | 83 | 1011.5 |
| 20260508073331 | 47 | 247 | 3.0 | 9.0 | 0.00 | 0.00 | 0.00 | 82 | 1011.6 |
| 20260508072828 | 47 | 245 | 3.0 | 9.0 | 0.00 | 0.00 | 0.00 | 82 | 1011.6 |
| 20260508072331 | 47 | 233 | 4.0 | 8.0 | 0.00 | 0.00 | 0.00 | 82 | 1011.6 |
| 20260508071855 | 48 | 253 | 4.0 | 8.0 | 0.00 | 0.00 | 0.00 | 81 | 1011.7 |
| 20260508071331 | 48 | 239 | 4.0 | 6.0 | 0.00 | 0.00 | 0.00 | 81 | 1011.7 |
| 20260508070833 | 48 | 255 | 2.0 | 5.0 | 0.00 | 0.00 | 0.00 | 81 | 1011.7 |
| 20260508070330 | 48 | 234 | 2.0 | 9.0 | 0.00 | 0.00 | 0.00 | 81 | 1011.6 |
| 20260508065825 | 48 | 241 | 5.0 | 11.0 | 0.00 | 0.00 | 0.00 | 80 | 1011.6 |
| 20260508065349 | 48 | 239 | 4.0 | 10.0 | 0.00 | 0.00 | 0.00 | 80 | 1011.6 |
| 20260508064852 | 48 | 233 | 6.0 | 9.0 | 0.00 | 0.00 | 0.00 | 80 | 1011.7 |
| 20260508064335 | 48 | 241 | 4.0 | 9.0 | 0.00 | 0.00 | 0.00 | 80 | 1011.5 |
| 20260508063827 | 48 | 227 | 4.0 | 11.0 | 0.00 | 0.00 | 0.00 | 80 | 1011.4 |
| 20260508063331 | 48 | 237 | 6.0 | 11.0 | 0.00 | 0.00 | 0.00 | 81 | 1011.5 |
| 20260508062856 | 48 | 226 | 4.0 | 9.0 | 0.00 | 0.00 | 0.00 | 82 | 1011.5 |
| 20260508062332 | 48 | 233 | 4.0 | 6.0 | 0.00 | 0.00 | 0.00 | 82 | 1011.7 |
| 20260508061828 | 48 | 237 | 4.0 | 6.0 | 0.00 | 0.00 | 0.00 | 82 | 1011.7 |
| 20260508061332 | 47 | 235 | 4.0 | 6.0 | 0.00 | 0.00 | 0.00 | 82 | 1011.7 |
| 20260508060829 | 47 | 245 | 2.0 | 4.0 | 0.00 | 0.00 | 0.00 | 80 | 1011.8 |
| 20260508060332 | 47 | 244 | 0.0 | 2.0 | 0.00 | 0.00 | 0.00 | 78 | 1011.9 |
| 20260508055830 | 48 | 244 | 0.0 | 0.0 | 0.00 | 0.00 | 0.00 | 78 | 1011.9 |
| 20260508055335 | 48 | 244 | 0.0 | 0.0 | 0.00 | 0.00 | 0.00 | 78 | 1012.0 |
| 20260508054831 | 48 | 244 | 0.0 | 0.0 | 0.00 | 0.00 | 0.00 | 78 | 1012.0 |
| 20260508054335 | 48 | 244 | 0.0 | 1.0 | 0.00 | 0.00 | 0.00 | 78 | 1012.0 |
| 20260508053832 | 48 | 244 | 0.0 | 2.0 | 0.00 | 0.00 | 0.00 | 79 | 1012.0 |
| 20260508053337 | 48 | 244 | 0.0 | 2.0 | 0.00 | 0.00 | 0.00 | 79 | 1011.9 |
| 20260508052834 | 48 | 243 | 1.0 | 3.0 | 0.00 | 0.00 | 0.00 | 78 | 1011.8 |
| 20260508052331 | 48 | 243 | 1.0 | 4.0 | 0.00 | 0.00 | 0.00 | 78 | 1011.9 |
| 20260508051834 | 48 | 243 | 2.0 | 4.0 | 0.00 | 0.00 | 0.00 | 78 | 1011.9 |
| 20260508051330 | 48 | 247 | 2.0 | 4.0 | 0.00 | 0.00 | 0.00 | 77 | 1011.9 |
| 20260508050831 | 48 | 247 | 2.0 | 4.0 | 0.00 | 0.00 | 0.00 | 77 | 1011.8 |
| 20260508050335 | 48 | 248 | 3.0 | 5.0 | 0.00 | 0.00 | 0.00 | 77 | 1011.9 |
| 20260508045852 | 48 | 239 | 3.0 | 5.0 | 0.00 | 0.00 | 0.00 | 78 | 1011.9 |
| 20260508045335 | 49 | 239 | 3.0 | 5.0 | 0.00 | 0.00 | 0.00 | 78 | 1011.9 |
| 20260508044832 | 49 | 235 | 2.0 | 5.0 | 0.00 | 0.00 | 0.00 | 77 | 1011.9 |
| 20260508044336 | 49 | 238 | 3.0 | 5.0 | 0.00 | 0.00 | 0.00 | 77 | 1012.0 |
| 20260508043832 | 49 | 242 | 3.0 | 5.0 | 0.00 | 0.00 | 0.00 | 76 | 1012.0 |
| 20260508043335 | 49 | 243 | 2.0 | 5.0 | 0.00 | 0.00 | 0.00 | 76 | 1012.0 |
| 20260508042832 | 49 | 235 | 3.0 | 5.0 | 0.00 | 0.00 | 0.00 | 75 | 1011.9 |
| 20260508042328 | 49 | 249 | 2.0 | 3.0 | 0.00 | 0.00 | 0.00 | 74 | 1011.9 |
| 20260508041832 | 49 | 249 | 2.0 | 4.0 | 0.00 | 0.00 | 0.00 | 74 | 1012.0 |
| 20260508041329 | 49 | 251 | 2.0 | 5.0 | 0.00 | 0.00 | 0.00 | 73 | 1012.0 |
| 20260508040834 | 50 | 233 | 2.0 | 5.0 | 0.00 | 0.00 | 0.00 | 73 | 1012.1 |
| 20260508040332 | 50 | 243 | 3.0 | 5.0 | 0.00 | 0.00 | 0.00 | 73 | 1012.1 |
| 20260508035835 | 50 | 233 | 2.0 | 6.0 | 0.00 | 0.00 | 0.00 | 73 | 1012.2 |
| 20260508035331 | 50 | 253 | 1.0 | 5.0 | 0.00 | 0.00 | 0.00 | 73 | 1012.2 |
| 20260508034834 | 50 | 260 | 2.0 | 6.0 | 0.00 | 0.00 | 0.00 | 72 | 1012.3 |
| 20260508034331 | 50 | 236 | 2.0 | 6.0 | 0.00 | 0.00 | 0.00 | 72 | 1012.3 |
| 20260508033835 | 50 | 250 | 2.0 | 8.0 | 0.00 | 0.00 | 0.00 | 71 | 1012.3 |
| 20260508033331 | 50 | 225 | 3.0 | 8.0 | 0.00 | 0.00 | 0.00 | 70 | 1012.4 |
| 20260508032827 | 50 | 249 | 3.0 | 8.0 | 0.00 | 0.00 | 0.00 | 70 | 1012.3 |
| 20260508032331 | 51 | 245 | 2.0 | 10.0 | 0.00 | 0.00 | 0.00 | 70 | 1012.4 |
| 20260508031828 | 51 | 245 | 4.0 | 10.0 | 0.00 | 0.00 | 0.00 | 69 | 1012.4 |
| 20260508031352 | 51 | 235 | 4.0 | 8.0 | 0.00 | 0.00 | 0.00 | 68 | 1012.3 |
| 20260508030834 | 51 | 242 | 3.0 | 9.0 | 0.00 | 0.00 | 0.00 | 68 | 1012.4 |
| 20260508030329 | 51 | 248 | 3.0 | 9.0 | 0.00 | 0.00 | 0.00 | 67 | 1012.5 |
| 20260508025832 | 51 | 238 | 3.0 | 9.0 | 0.00 | 0.00 | 0.00 | 67 | 1012.4 |
| 20260508025357 | 51 | 257 | 4.0 | 7.0 | 0.00 | 0.00 | 0.00 | 67 | 1012.5 |
| 20260508024832 | 51 | 239 | 4.0 | 11.0 | 0.00 | 0.00 | 0.00 | 67 | 1012.5 |
| 20260508024335 | 51 | 222 | 6.0 | 10.0 | 0.00 | 0.00 | 0.00 | 66 | 1012.5 |
| 20260508023831 | 51 | 246 | 3.0 | 8.0 | 0.00 | 0.00 | 0.00 | 63 | 1012.5 |
| 20260508023329 | 51 | 265 | 3.0 | 9.0 | 0.00 | 0.00 | 0.00 | 64 | 1012.5 |
| 20260508022834 | 51 | 266 | 2.0 | 9.0 | 0.00 | 0.00 | 0.00 | 64 | 1012.4 |
| 20260508022356 | 51 | 262 | 5.0 | 7.0 | 0.00 | 0.00 | 0.00 | 62 | 1012.4 |
| 20260508021831 | 51 | 250 | 4.0 | 10.0 | 0.00 | 0.00 | 0.00 | 63 | 1012.2 |
| 20260508021334 | 50 | 245 | 5.0 | 12.0 | 0.00 | 0.00 | 0.00 | 62 | 1012.2 |
| 20260508020851 | 50 | 256 | 5.0 | 12.0 | 0.00 | 0.00 | 0.00 | 65 | 1012.3 |
| 20260508020334 | 50 | 237 | 4.0 | 8.0 | 0.00 | 0.00 | 0.00 | 66 | 1012.3 |
| 20260508015830 | 50 | 267 | 1.0 | 2.0 | 0.00 | 0.00 | 0.00 | 62 | 1012.1 |
| 20260508015334 | 50 | 267 | 0.0 | 0.0 | 0.00 | 0.00 | 0.00 | 60 | 1012.1 |
| 20260508014831 | 50 | 268 | 0.0 | 0.0 | 0.00 | 0.00 | 0.00 | 58 | 1012.1 |
| 20260508014335 | 50 | 267 | 0.0 | 0.0 | 0.00 | 0.00 | 0.00 | 55 | 1012.0 |
| 20260508013834 | 51 | 267 | 0.0 | 0.0 | 0.00 | 0.00 | 0.00 | 54 | 1012.0 |
| 20260508013336 | 51 | 267 | 0.0 | 0.0 | 0.00 | 0.00 | 0.00 | 54 | 1011.9 |
| 20260508012832 | 51 | 267 | 0.0 | 0.0 | 0.00 | 0.00 | 0.00 | 54 | 1011.8 |
| 20260508012337 | 51 | 267 | 0.0 | 0.0 | 0.00 | 0.00 | 0.00 | 54 | 1011.8 |
| 20260508011831 | 51 | 267 | 0.0 | 0.0 | 0.00 | 0.00 | 0.00 | 55 | 1011.8 |
| 20260508011356 | 52 | 267 | 0.0 | 0.0 | 0.00 | 0.00 | 0.00 | 54 | 1011.8 |
| 20260508010837 | 52 | 267 | 0.0 | 0.0 | 0.00 | 0.00 | 0.00 | 54 | 1011.7 |
| 20260508010333 | 52 | 267 | 0.0 | 0.0 | 0.00 | 0.00 | 0.00 | 56 | 1011.7 |
| 20260508005838 | 52 | 268 | 0.0 | 0.0 | 0.00 | 0.00 | 0.00 | 55 | 1011.7 |
| 20260508005335 | 52 | 267 | 0.0 | 0.0 | 0.00 | 0.00 | 0.00 | 55 | 1011.6 |
| 20260508004833 | 52 | 267 | 0.0 | 2.0 | 0.00 | 0.00 | 0.00 | 55 | 1011.6 |
| 20260508004337 | 53 | 267 | 0.0 | 2.0 | 0.00 | 0.00 | 0.00 | 55 | 1011.6 |
| 20260508003832 | 53 | 268 | 0.0 | 2.0 | 0.00 | 0.00 | 0.00 | 55 | 1011.5 |
| 20260508003335 | 53 | 267 | 0.0 | 2.0 | 0.00 | 0.00 | 0.00 | 54 | 1011.5 |
| 20260508002831 | 53 | 267 | 0.0 | 2.0 | 0.00 | 0.00 | 0.00 | 55 | 1011.5 |
| 20260508002335 | 53 | 267 | 1.0 | 3.0 | 0.00 | 0.00 | 0.00 | 53 | 1011.5 |
| 20260508001833 | 53 | 267 | 1.0 | 3.0 | 0.00 | 0.00 | 0.00 | 54 | 1011.5 |
| 20260508001337 | 53 | 268 | 0.0 | 4.0 | 0.00 | 0.00 | 0.00 | 53 | 1011.5 |
| 20260508000833 | 54 | 266 | 1.0 | 4.0 | 0.00 | 0.00 | 0.00 | 52 | 1011.6 |
| 20260508000339 | 54 | 264 | 2.0 | 5.0 | 0.00 | 0.00 | 0.00 | 52 | 1011.6 |
| 20260507235834 | 54 | 264 | 2.0 | 5.0 | 0.00 | 0.00 | 0.00 | 51 | 1011.7 |
| 20260507235331 | 54 | 266 | 2.0 | 8.0 | 0.00 | 0.00 | 0.00 | 50 | 1011.6 |
| 20260507234854 | 54 | 266 | 3.0 | 8.0 | 0.00 | 0.00 | 0.00 | 50 | 1011.5 |
| 20260507234336 | 54 | 269 | 3.0 | 5.0 | 0.00 | 0.00 | 0.00 | 48 | 1011.6 |
| 20260507233832 | 55 | 279 | 2.0 | 7.0 | 0.00 | 0.00 | 0.00 | 48 | 1011.5 |
| 20260507233337 | 55 | 264 | 4.0 | 10.0 | 0.00 | 0.00 | 0.00 | 47 | 1011.6 |
| 20260507232835 | 55 | 262 | 4.0 | 10.0 | 0.00 | 0.00 | 0.00 | 47 | 1011.6 |
| 20260507232337 | 55 | 264 | 4.0 | 11.0 | 0.00 | 0.00 | 0.00 | 48 | 1011.5 |
| 20260507231833 | 55 | 249 | 4.0 | 11.0 | 0.00 | 0.00 | 0.00 | 47 | 1011.6 |
| 20260507231354 | 55 | 254 | 6.0 | 11.0 | 0.00 | 0.00 | 0.00 | 47 | 1011.5 |
| 20260507230837 | 55 | 235 | 4.0 | 9.0 | 0.00 | 0.00 | 0.00 | 46 | 1011.5 |
| 20260507230332 | 55 | 270 | 5.0 | 12.0 | 0.00 | 0.00 | 0.00 | 46 | 1011.4 |
| 20260507225855 | 55 | 259 | 5.0 | 12.0 | 0.00 | 0.00 | 0.00 | 46 | 1011.5 |
| 20260507225357 | 55 | 251 | 5.0 | 14.0 | 0.00 | 0.00 | 0.00 | 47 | 1011.6 |
| 20260507224834 | 55 | 239 | 6.0 | 14.0 | 0.00 | 0.00 | 0.00 | 46 | 1011.6 |
| 20260507224357 | 55 | 257 | 6.0 | 13.0 | 0.00 | 0.00 | 0.00 | 46 | 1011.8 |
| 20260507223832 | 55 | 274 | 7.0 | 12.0 | 0.00 | 0.00 | 0.00 | 46 | 1011.8 |
| 20260507223334 | 55 | 245 | 6.0 | 12.0 | 0.00 | 0.00 | 0.00 | 47 | 1011.8 |
| 20260507222837 | 55 | 245 | 6.0 | 14.0 | 0.00 | 0.00 | 0.00 | 45 | 1011.9 |
| 20260507222333 | 55 | 246 | 6.0 | 14.0 | 0.00 | 0.00 | 0.00 | 47 | 1011.9 |
| 20260507221830 | 56 | 258 | 6.0 | 15.0 | 0.00 | 0.00 | 0.00 | 45 | 1011.8 |
| 20260507221353 | 56 | 261 | 8.0 | 15.0 | 0.00 | 0.00 | 0.00 | 47 | 1011.8 |
| 20260507220834 | 55 | 279 | 4.0 | 12.0 | 0.00 | 0.00 | 0.00 | 48 | 1011.7 |
| 20260507220336 | 55 | 259 | 5.0 | 12.0 | 0.00 | 0.00 | 0.00 | 47 | 1011.8 |
| 20260507215831 | 55 | 239 | 7.0 | 12.0 | 0.00 | 0.00 | 0.00 | 47 | 1011.8 |
| 20260507215355 | 55 | 274 | 5.0 | 15.0 | 0.00 | 0.00 | 0.00 | 48 | 1011.7 |
| 20260507214836 | 55 | 249 | 7.0 | 15.0 | 0.00 | 0.00 | 0.00 | 45 | 1011.8 |
| 20260507214352 | 55 | 247 | 7.0 | 15.0 | 0.00 | 0.00 | 0.00 | 46 | 1011.8 |
| 20260507213835 | 55 | 249 | 9.0 | 15.0 | 0.00 | 0.00 | 0.00 | 46 | 1011.7 |
| 20260507213333 | 55 | 275 | 7.0 | 16.0 | 0.00 | 0.00 | 0.00 | 47 | 1011.8 |
| 20260507212836 | 55 | 271 | 5.0 | 16.0 | 0.00 | 0.00 | 0.00 | 47 | 1011.7 |
| 20260507212332 | 56 | 261 | 8.0 | 17.0 | 0.00 | 0.00 | 0.00 | 48 | 1011.7 |
| 20260507211836 | 56 | 259 | 9.0 | 22.0 | 0.00 | 0.00 | 0.00 | 47 | 1011.7 |
| 20260507211334 | 56 | 272 | 9.0 | 22.0 | 0.00 | 0.00 | 0.00 | 47 | 1011.8 |
| 20260507210837 | 56 | 247 | 8.0 | 16.0 | 0.00 | 0.00 | 0.00 | 47 | 1011.8 |
| 20260507210333 | 56 | 263 | 7.0 | 16.0 | 0.00 | 0.00 | 0.00 | 50 | 1011.7 |
| 20260507205830 | 56 | 234 | 7.0 | 17.0 | 0.00 | 0.00 | 0.00 | 48 | 1011.7 |
| 20260507205333 | 56 | 239 | 7.0 | 17.0 | 0.00 | 0.00 | 0.00 | 47 | 1011.7 |
| 20260507204830 | 56 | 261 | 8.0 | 20.0 | 0.00 | 0.00 | 0.00 | 49 | 1011.8 |
| 20260507204333 | 56 | 246 | 9.0 | 20.0 | 0.00 | 0.00 | 0.00 | 46 | 1011.7 |
| 20260507203829 | 56 | 248 | 9.0 | 20.0 | 0.00 | 0.00 | 0.00 | 49 | 1011.8 |
| 20260507203333 | 56 | 256 | 12.0 | 20.0 | 0.00 | 0.00 | 0.00 | 47 | 1011.8 |
| 20260507202859 | 56 | 269 | 12.0 | 16.0 | 0.00 | 0.00 | 0.00 | 49 | 1011.8 |
| 20260507202334 | 56 | 249 | 8.0 | 16.0 | 0.00 | 0.00 | 0.00 | 47 | 1011.8 |
| 20260507201830 | 56 | 242 | 7.0 | 14.0 | 0.00 | 0.00 | 0.00 | 46 | 1011.8 |
| 20260507201333 | 56 | 251 | 7.0 | 22.0 | 0.00 | 0.00 | 0.00 | 48 | 1011.7 |
| 20260507200829 | 56 | 265 | 12.0 | 22.0 | 0.00 | 0.00 | 0.00 | 48 | 1011.8 |
| 20260507200332 | 55 | 245 | 7.0 | 14.0 | 0.00 | 0.00 | 0.00 | 50 | 1011.6 |
| 20260507195829 | 55 | 253 | 4.0 | 15.0 | 0.00 | 0.01 | 0.00 | 49 | 1011.7 |
| 20260507195330 | 55 | 229 | 10.0 | 15.0 | 0.00 | 0.01 | 0.00 | 48 | 1011.7 |
| 20260507194834 | 55 | 254 | 9.0 | 15.0 | 0.00 | 0.01 | 0.00 | 48 | 1011.7 |
| 20260507194350 | 55 | 244 | 3.0 | 15.0 | 0.00 | 0.01 | 0.00 | 47 | 1011.8 |
| 20260507193833 | 55 | 260 | 10.0 | 15.0 | 0.00 | 0.01 | 0.00 | 49 | 1011.8 |
| 20260507193328 | 55 | 264 | 6.0 | 15.0 | 0.00 | 0.01 | 0.00 | 49 | 1011.8 |
| 20260507192831 | 55 | 241 | 8.0 | 16.0 | 0.00 | 0.01 | 0.00 | 47 | 1011.8 |
| 20260507192342 | 56 | 243 | 9.0 | 20.0 | 0.00 | 0.01 | 0.00 | 48 | 1011.7 |
| 20260507191824 | 56 | 231 | 10.0 | 20.0 | 0.00 | 0.01 | 0.00 | 48 | 1011.7 |
| 20260507191322 | 56 | 258 | 9.0 | 14.0 | 0.00 | 0.01 | 0.00 | 49 | 1011.8 |
| 20260507190827 | 56 | 258 | 8.0 | 17.0 | 0.00 | 0.01 | 0.00 | 51 | 1011.8 |
| 20260507190412 | 55 | 276 | 10.0 | 17.0 | 0.00 | 0.01 | 0.00 | 51 | 1011.8 |
| 20260507185830 | 55 | 226 | 7.0 | 13.0 | 0.00 | 0.01 | 0.00 | 51 | 1011.9 |
| 20260507185334 | 55 | 250 | 9.0 | 14.0 | 0.00 | 0.01 | 0.00 | 52 | 1011.9 |